This is the latest recevied weather packets stored in our database for station/object K6CED. If no packets are shown the sender has not sent any weather packets the latest 10 day(s).
| Time | Temp. | Humidity | Pressure | Rain* | Wind** | Luminosity | Snow |
|---|---|---|---|---|---|---|---|
| 1777597282 | 18.89° C | 66% | 1013.2 hPa | 0 mm | - | 130 W/m² | - |
| 1777596977 | 18.33° C | 67% | 1013.4 hPa | 0 mm | - | 147 W/m² | - |
| 1777596675 | 18.89° C | 66% | 1013.3 hPa | 0 mm | - | 163 W/m² | - |
| 1777596372 | 18.89° C | 66% | 1013.4 hPa | 0 mm | - | 179 W/m² | - |
| 1777596069 | 18.89° C | 65% | 1013.1 hPa | 0 mm | - | 190 W/m² | - |
| 1777595764 | 19.44° C | 65% | 1013.4 hPa | 0 mm | - | 204 W/m² | - |
| 1777595459 | 19.44° C | 64% | 1013.2 hPa | 0 mm | - | 219 W/m² | - |
| 1777595156 | 19.44° C | 64% | 1013.2 hPa | 0 mm | - | 236 W/m² | - |
| 1777594852 | 19.44° C | 65% | 1012.9 hPa | 0 mm | - | 254 W/m² | - |
| 1777594549 | 19.44° C | 64% | 1013.1 hPa | 0 mm | - | 272 W/m² | - |
| 1777594245 | 20° C | 62% | 1013.2 hPa | 0 mm | - | 287 W/m² | - |
| 1777593940 | 20° C | 62% | 1013 hPa | 0 mm | - | 308 W/m² | - |
| 1777593637 | 20° C | 63% | 1013 hPa | 0 mm | - | 326 W/m² | - |
| 1777593333 | 20° C | 62% | 1012.9 hPa | 0 mm | - | 339 W/m² | - |
| 1777593027 | 20° C | 62% | 1012.9 hPa | 0 mm | - | 358 W/m² | - |
| 1777592726 | 20.56° C | 62% | 1012.7 hPa | 0 mm | - | 381 W/m² | - |
| 1777592423 | 20° C | 62% | 1012.9 hPa | 0 mm | - | 402 W/m² | - |
| 1777592118 | 20° C | 62% | 1012.8 hPa | 0 mm | - | 418 W/m² | - |
| 1777591815 | 20° C | 62% | 1012.7 hPa | 0 mm | - | 436 W/m² | - |
| 1777591511 | 20.56° C | 61% | 1012.8 hPa | 0 mm | - | 463 W/m² | - |
| 1777591208 | 20.56° C | 61% | 1012.9 hPa | 0 mm | - | 477 W/m² | - |
| 1777590908 | 20.56° C | 60% | 1013 hPa | 0 mm | - | 490 W/m² | - |
| 1777590604 | 21.11° C | 59% | 1012.9 hPa | 0 mm | - | 512 W/m² | - |
| 1777590300 | 20.56° C | 59% | 1013 hPa | 0 mm | - | 423 W/m² | - |
| 1777589998 | 20.56° C | 59% | 1013 hPa | 0 mm | - | 552 W/m² | - |
* Rain latest hour (hover to see other rain measurements)
** Current wind speed in m/s (hover to see current wind gust speed)